BAW700 EGLL-LTFM

Flight info

Callsign BAW700
Flight time 3h 25m
Altitude 35000
Route DET2F DET L6 DVR UL9 KONAN DCT KOK UL607 FERDI DCT MATUG DCT AMASI DCT BOMBI DCT TENLO DCT DEXIT DCT BEGLA DCT TEGRI/N0439F370 DCT NEKUL DCT LAMIT DCT RASUB DCT BULEN DCT BUVAK DCT RIXEN RIXEN1A
Aircraft A21N/M-SDE3FGHIJ1LRWXYZ/SB1G1

Departure

Time 2026-05-06 07:20
Airport London Heathrow Airport (EGLL)

Arrival

Time 2026-05-06 10:45
Airport İstanbul Airport (LTFM)
Time Latitude Longitude Altitude Speed Heading
2026-05-06 07:01 51.47413 -0.48830 90 ft 0 kts 180°
2026-05-06 07:10 51.47434 -0.48832 91 ft 4 kts 172°
2026-05-06 07:10 51.47460 -0.48841 92 ft 4 kts 158°
2026-05-06 07:11 51.47482 -0.48863 90 ft 4 kts 127°
2026-05-06 07:11 51.47488 -0.48888 90 ft 1 kts 95°
2026-05-06 07:11 51.47489 -0.48893 90 ft 0 kts 95°
2026-05-06 07:15 51.47488 -0.48889 90 ft 1 kts 95°
2026-05-06 07:15 51.47487 -0.48854 90 ft 5 kts 93°
2026-05-06 07:16 51.47486 -0.48780 92 ft 8 kts 90°
2026-05-06 07:16 51.47486 -0.48683 91 ft 9 kts 89°
2026-05-06 07:16 51.47487 -0.48568 91 ft 11 kts 89°
2026-05-06 07:16 51.47440 -0.48478 91 ft 13 kts 173°
2026-05-06 07:17 51.47347 -0.48475 90 ft 14 kts 180°
2026-05-06 07:17 51.47245 -0.48476 90 ft 15 kts 180°
2026-05-06 07:17 51.47134 -0.48476 90 ft 17 kts 179°
2026-05-06 07:17 51.47014 -0.48474 90 ft 18 kts 179°
2026-05-06 07:18 51.46886 -0.48471 92 ft 19 kts 179°
2026-05-06 07:18 51.46752 -0.48467 90 ft 20 kts 179°
2026-05-06 07:18 51.46617 -0.48465 94 ft 17 kts 179°
2026-05-06 07:18 51.46496 -0.48446 93 ft 18 kts 139°
2026-05-06 07:19 51.46479 -0.48374 93 ft 0 kts 84°
2026-05-06 07:19 51.46481 -0.48190 92 ft 47 kts 90°
2026-05-06 07:19 51.46485 -0.47295 90 ft 110 kts 87°
2026-05-06 07:20 51.46495 -0.45786 88 ft 159 kts 89°
2026-05-06 07:20 51.46486 -0.43908 430 ft 168 kts 87°
2026-05-06 07:20 51.46502 -0.42023 1030 ft 170 kts 84°
2026-05-06 07:20 51.46405 -0.40087 1535 ft 187 kts 103°
2026-05-06 07:21 51.45620 -0.38273 1886 ft 216 kts 141°
2026-05-06 07:21 51.44307 -0.36898 2299 ft 236 kts 130°
2026-05-06 07:21 51.43507 -0.34575 2741 ft 246 kts 100°
2026-05-06 07:21 51.43143 -0.31843 3459 ft 255 kts 97°
2026-05-06 07:22 51.42794 -0.29056 4252 ft 261 kts 98°
2026-05-06 07:22 51.42420 -0.26168 5048 ft 268 kts 98°
2026-05-06 07:22 51.42032 -0.23197 5662 ft 275 kts 98°
2026-05-06 07:22 51.41628 -0.20178 5921 ft 278 kts 99°
2026-05-06 07:23 51.41216 -0.17148 5994 ft 279 kts 99°
2026-05-06 07:23 51.40802 -0.14109 6008 ft 279 kts 99°
2026-05-06 07:23 51.40384 -0.11067 6010 ft 280 kts 99°
2026-05-06 07:23 51.39964 -0.08034 5999 ft 278 kts 99°
2026-05-06 07:24 51.39548 -0.05000 5994 ft 279 kts 99°
2026-05-06 07:24 51.39125 -0.01965 5988 ft 279 kts 99°
2026-05-06 07:24 51.38704 0.01072 5995 ft 281 kts 99°
2026-05-06 07:24 51.38288 0.04101 5994 ft 281 kts 99°
2026-05-06 07:25 51.37866 0.07155 5995 ft 281 kts 99°
2026-05-06 07:25 51.37443 0.10208 5996 ft 281 kts 99°
2026-05-06 07:25 51.37125 0.12470 5996 ft 281 kts 99°
2026-05-06 07:25 51.36693 0.15523 6338 ft 283 kts 99°
2026-05-06 07:26 51.36258 0.18613 7142 ft 285 kts 99°
2026-05-06 07:26 51.35820 0.21714 8008 ft 286 kts 100°
2026-05-06 07:26 51.35379 0.24826 8906 ft 288 kts 101°
2026-05-06 07:26 51.34932 0.27974 9789 ft 291 kts 101°
2026-05-06 07:27 51.34480 0.31167 10401 ft 303 kts 101°
2026-05-06 07:27 51.34000 0.34566 10734 ft 323 kts 101°
2026-05-06 07:27 51.33487 0.38185 11031 ft 344 kts 102°
2026-05-06 07:27 51.32936 0.42009 11392 ft 360 kts 102°
2026-05-06 07:28 51.32368 0.45936 12150 ft 365 kts 102°
2026-05-06 07:28 51.31793 0.49910 12935 ft 368 kts 102°
2026-05-06 07:28 51.30628 0.57926 14389 ft 374 kts 103°
2026-05-06 07:29 51.29967 0.61921 14990 ft 378 kts 106°
2026-05-06 07:29 51.29225 0.65973 15621 ft 382 kts 106°
2026-05-06 07:29 51.28470 0.70070 16223 ft 386 kts 105°
2026-05-06 07:29 51.27711 0.74220 16790 ft 391 kts 105°
2026-05-06 07:30 51.26946 0.78414 17364 ft 394 kts 105°
2026-05-06 07:30 51.26169 0.82631 17954 ft 398 kts 106°
2026-05-06 07:30 51.25380 0.86890 18450 ft 402 kts 105°
2026-05-06 07:30 51.24581 0.91185 18915 ft 406 kts 106°
2026-05-06 07:31 51.23772 0.95519 19430 ft 408 kts 106°
2026-05-06 07:31 51.22960 0.99859 19983 ft 409 kts 105°
2026-05-06 07:31 51.22148 1.04219 20513 ft 410 kts 106°
2026-05-06 07:31 51.21332 1.08593 21002 ft 413 kts 106°
2026-05-06 07:32 51.20516 1.13000 21520 ft 415 kts 106°
2026-05-06 07:32 51.19708 1.17371 22000 ft 417 kts 107°
2026-05-06 07:32 51.18886 1.21828 22486 ft 420 kts 107°
2026-05-06 07:32 51.18056 1.26305 22955 ft 423 kts 107°
2026-05-06 07:33 51.17214 1.30813 23454 ft 425 kts 107°
2026-05-06 07:33 51.16430 1.35366 23843 ft 428 kts 103°
2026-05-06 07:33 51.16027 1.40083 24229 ft 431 kts 96°
2026-05-06 07:33 51.15790 1.44860 24619 ft 433 kts 94°
2026-05-06 07:34 51.15572 1.49655 24963 ft 436 kts 94°
2026-05-06 07:34 51.15348 1.54484 25314 ft 438 kts 94°
2026-05-06 07:34 51.15124 1.59338 25693 ft 440 kts 94°
2026-05-06 07:34 51.14894 1.64207 26061 ft 441 kts 95°
2026-05-06 07:35 51.14650 1.69087 26427 ft 443 kts 95°
2026-05-06 07:35 51.14401 1.73984 26763 ft 445 kts 95°
2026-05-06 07:35 51.14141 1.78845 27085 ft 447 kts 95°
2026-05-06 07:35 51.13872 1.83782 27421 ft 448 kts 95°
2026-05-06 07:36 51.13608 1.88736 27733 ft 450 kts 95°
2026-05-06 07:36 51.13345 1.93711 28071 ft 451 kts 95°
2026-05-06 07:36 51.13083 1.98697 28432 ft 452 kts 95°
2026-05-06 07:36 51.12818 2.03680 28749 ft 453 kts 95°
2026-05-06 07:37 51.12553 2.08704 29044 ft 454 kts 95°
2026-05-06 07:37 51.12305 2.13719 29432 ft 454 kts 95°
2026-05-06 07:37 51.12059 2.18656 29830 ft 452 kts 95°
2026-05-06 07:37 51.11799 2.23643 30182 ft 451 kts 95°
2026-05-06 07:38 51.11523 2.28613 30474 ft 450 kts 96°
2026-05-06 07:38 51.11248 2.33583 30769 ft 450 kts 95°
2026-05-06 07:38 51.10975 2.38559 31062 ft 450 kts 95°
2026-05-06 07:38 51.10705 2.43506 31415 ft 448 kts 95°
2026-05-06 07:39 51.10429 2.48428 31718 ft 447 kts 95°
2026-05-06 07:39 51.10141 2.53358 32003 ft 446 kts 95°
2026-05-06 07:39 51.09851 2.58277 32287 ft 446 kts 96°
2026-05-06 07:39 51.09531 2.63190 32549 ft 446 kts 97°
2026-05-06 07:40 51.08925 2.67947 32793 ft 445 kts 105°
2026-05-06 07:40 51.08077 2.72686 33062 ft 444 kts 106°
2026-05-06 07:40 51.07228 2.77417 33283 ft 445 kts 106°
2026-05-06 07:40 51.06375 2.82134 33544 ft 444 kts 106°
2026-05-06 07:41 51.05515 2.86856 33782 ft 444 kts 105°
2026-05-06 07:41 51.04661 2.91575 33980 ft 444 kts 106°
2026-05-06 07:41 51.03808 2.96280 34141 ft 444 kts 105°
2026-05-06 07:41 51.02950 3.01000 34296 ft 444 kts 106°
2026-05-06 07:42 51.02088 3.05716 34439 ft 445 kts 106°
2026-05-06 07:42 51.01511 3.08844 34540 ft 445 kts 106°
2026-05-06 07:42 51.00633 3.13554 34679 ft 445 kts 107°
2026-05-06 07:42 50.99749 3.18272 34817 ft 445 kts 107°
2026-05-06 07:43 50.98873 3.22992 34918 ft 447 kts 106°
2026-05-06 07:43 50.98004 3.27724 34910 ft 446 kts 107°
2026-05-06 07:43 50.96239 3.37200 34875 ft 450 kts 107°
2026-05-06 07:44 50.94458 3.46708 34868 ft 450 kts 107°
2026-05-06 07:44 50.92668 3.56216 34867 ft 450 kts 107°
2026-05-06 07:45 50.90922 3.65685 34867 ft 451 kts 105°
2026-05-06 07:45 50.89297 3.75254 34867 ft 450 kts 105°
2026-05-06 07:46 50.87685 3.84811 34860 ft 448 kts 106°
2026-05-06 07:46 50.86050 3.94342 34861 ft 449 kts 106°
2026-05-06 07:47 50.84422 4.03875 34856 ft 448 kts 106°
2026-05-06 07:47 50.82784 4.13383 34851 ft 448 kts 106°
2026-05-06 07:48 50.81120 4.22887 34850 ft 448 kts 107°
2026-05-06 07:48 50.79435 4.32367 34846 ft 448 kts 106°
2026-05-06 07:49 50.77776 4.41811 34845 ft 448 kts 106°
2026-05-06 07:49 50.76099 4.51315 34848 ft 448 kts 107°
2026-05-06 07:50 50.74415 4.60806 34845 ft 448 kts 107°
2026-05-06 07:50 50.72739 4.70243 34830 ft 449 kts 107°
2026-05-06 07:51 50.71046 4.79729 34837 ft 449 kts 107°
2026-05-06 07:51 50.69332 4.89214 34824 ft 449 kts 107°
2026-05-06 07:52 50.67621 4.98693 34820 ft 449 kts 107°
2026-05-06 07:52 50.65902 5.08175 34814 ft 449 kts 107°
2026-05-06 07:53 50.64167 5.17653 34809 ft 451 kts 107°
2026-05-06 07:53 50.62427 5.27166 34798 ft 452 kts 108°
2026-05-06 07:54 50.60678 5.36604 34800 ft 452 kts 108°
2026-05-06 07:54 50.58910 5.46116 34795 ft 452 kts 108°
2026-05-06 07:55 50.57154 5.55618 34794 ft 452 kts 108°
2026-05-06 07:55 50.55370 5.65106 34793 ft 452 kts 108°
2026-05-06 07:56 50.53596 5.74573 34794 ft 452 kts 108°
2026-05-06 07:56 50.51812 5.84041 34790 ft 451 kts 108°
2026-05-06 07:57 50.50021 5.93484 34788 ft 452 kts 109°
2026-05-06 07:57 50.48226 6.02922 34788 ft 450 kts 109°
2026-05-06 07:58 50.46404 6.12361 34771 ft 451 kts 109°
2026-05-06 07:58 50.44587 6.21726 34767 ft 451 kts 109°
2026-05-06 07:59 50.42747 6.31149 34753 ft 451 kts 109°
2026-05-06 07:59 50.41104 6.40661 34748 ft 453 kts 104°
2026-05-06 08:00 50.39771 6.50334 34737 ft 455 kts 104°
2026-05-06 08:00 50.38424 6.59968 34741 ft 455 kts 104°
2026-05-06 08:01 50.37071 6.69660 34733 ft 455 kts 104°
2026-05-06 08:01 50.35708 6.79340 34737 ft 455 kts 104°
2026-05-06 08:02 50.34338 6.89007 34734 ft 454 kts 104°
2026-05-06 08:02 50.33000 6.98704 34722 ft 456 kts 104°
2026-05-06 08:03 50.31644 7.08346 34732 ft 456 kts 105°
2026-05-06 08:03 50.30256 7.18027 34739 ft 456 kts 105°
2026-05-06 08:04 50.28856 7.27707 34735 ft 456 kts 105°
2026-05-06 08:04 50.27446 7.37372 34738 ft 456 kts 105°
2026-05-06 08:05 50.26025 7.47058 34732 ft 457 kts 105°
2026-05-06 08:05 50.24590 7.56729 34741 ft 457 kts 106°
2026-05-06 08:06 50.23160 7.66411 34733 ft 457 kts 106°
2026-05-06 08:06 50.21706 7.76059 34734 ft 457 kts 106°
2026-05-06 08:07 50.20249 7.85727 34729 ft 458 kts 107°
2026-05-06 08:07 50.18795 7.95419 34747 ft 458 kts 107°
2026-05-06 08:08 50.17330 8.05021 34760 ft 458 kts 107°
2026-05-06 08:08 50.15862 8.14696 34770 ft 458 kts 107°
2026-05-06 08:09 50.14377 8.24372 34779 ft 458 kts 107°
2026-05-06 08:09 50.12879 8.34036 34775 ft 459 kts 107°
2026-05-06 08:10 50.11376 8.43725 34772 ft 459 kts 107°
2026-05-06 08:10 50.09867 8.53370 34751 ft 461 kts 107°
2026-05-06 08:11 50.08345 8.63068 34758 ft 461 kts 107°
2026-05-06 08:11 50.06793 8.72767 34760 ft 461 kts 107°
2026-05-06 08:12 50.05124 8.82381 34760 ft 458 kts 112°
2026-05-06 08:12 50.03026 8.91730 34752 ft 458 kts 113°
2026-05-06 08:13 50.00896 9.01069 34754 ft 458 kts 113°
2026-05-06 08:13 49.98780 9.10403 34755 ft 458 kts 113°
2026-05-06 08:14 49.96646 9.19783 34762 ft 461 kts 113°
2026-05-06 08:14 49.94503 9.29165 34754 ft 460 kts 113°
2026-05-06 08:15 49.92368 9.38462 34766 ft 460 kts 113°
2026-05-06 08:15 49.90206 9.47807 34765 ft 460 kts 114°
2026-05-06 08:16 49.88043 9.57148 34753 ft 460 kts 114°
2026-05-06 08:16 49.85851 9.66492 34762 ft 460 kts 114°
2026-05-06 08:17 49.83668 9.75823 34764 ft 461 kts 114°
2026-05-06 08:17 49.81486 9.85142 34772 ft 460 kts 114°
2026-05-06 08:18 49.79285 9.94465 34770 ft 461 kts 115°
2026-05-06 08:18 49.77061 10.03764 34763 ft 461 kts 115°
2026-05-06 08:19 49.74842 10.13000 34767 ft 460 kts 116°
2026-05-06 08:19 49.72618 10.22242 34773 ft 458 kts 116°
2026-05-06 08:20 49.70394 10.31471 34784 ft 458 kts 116°
2026-05-06 08:20 49.68164 10.40694 34782 ft 458 kts 116°
2026-05-06 08:21 49.65926 10.49923 34777 ft 460 kts 116°
2026-05-06 08:21 49.63676 10.59158 34783 ft 460 kts 116°
2026-05-06 08:22 49.61421 10.68401 34781 ft 460 kts 116°
2026-05-06 08:22 49.59166 10.77627 34794 ft 460 kts 116°
2026-05-06 08:23 49.56894 10.86848 34793 ft 461 kts 116°
2026-05-06 08:23 49.54616 10.96099 34813 ft 461 kts 116°
2026-05-06 08:24 49.52307 11.05311 34816 ft 460 kts 118°
2026-05-06 08:24 49.49876 11.14358 34817 ft 460 kts 118°
2026-05-06 08:25 49.47409 11.23432 34815 ft 460 kts 118°
2026-05-06 08:25 49.44920 11.32522 34784 ft 461 kts 119°
2026-05-06 08:26 49.42425 11.41622 34784 ft 461 kts 118°
2026-05-06 08:26 49.39921 11.50709 34792 ft 461 kts 119°
2026-05-06 08:27 49.37412 11.59744 34789 ft 463 kts 119°
2026-05-06 08:27 49.34880 11.68849 34787 ft 465 kts 119°
2026-05-06 08:28 49.32333 11.77959 34798 ft 464 kts 119°
2026-05-06 08:28 49.29803 11.87057 34805 ft 464 kts 119°
2026-05-06 08:29 49.27260 11.96156 34815 ft 465 kts 119°
2026-05-06 08:29 49.25144 12.03717 34809 ft 465 kts 119°
2026-05-06 08:30 49.22578 12.12827 34803 ft 467 kts 120°
2026-05-06 08:30 49.19992 12.21930 34812 ft 467 kts 120°
2026-05-06 08:31 49.17394 12.31010 34813 ft 466 kts 120°
2026-05-06 08:31 49.14802 12.40103 34815 ft 466 kts 120°
2026-05-06 08:32 49.12194 12.49172 34790 ft 466 kts 121°
2026-05-06 08:32 49.09576 12.58237 34809 ft 467 kts 120°
2026-05-06 08:33 49.06941 12.67283 34813 ft 467 kts 121°
2026-05-06 08:33 49.04315 12.76329 34813 ft 467 kts 121°
2026-05-06 08:34 49.00363 12.89877 34804 ft 466 kts 121°
2026-05-06 08:35 48.97740 12.98834 34813 ft 466 kts 121°
2026-05-06 08:35 48.95095 13.07836 34812 ft 465 kts 121°
2026-05-06 08:36 48.92448 13.16830 34810 ft 465 kts 121°
2026-05-06 08:36 48.89785 13.25799 34788 ft 466 kts 121°
2026-05-06 08:37 48.87098 13.34798 34815 ft 469 kts 121°
2026-05-06 08:37 48.84412 13.43809 34816 ft 467 kts 121°
2026-05-06 08:38 48.81722 13.52791 34811 ft 467 kts 121°
2026-05-06 08:38 48.79015 13.61743 34815 ft 466 kts 121°
2026-05-06 08:39 48.76344 13.70663 34806 ft 469 kts 120°
2026-05-06 08:39 48.73944 13.79900 34819 ft 471 kts 118°
2026-05-06 08:40 48.71568 13.89145 34825 ft 471 kts 117°
2026-05-06 08:40 48.69204 13.98396 34824 ft 471 kts 117°
2026-05-06 08:41 48.66831 14.07634 34812 ft 471 kts 117°
2026-05-06 08:41 48.64441 14.16859 34815 ft 470 kts 118°
2026-05-06 08:42 48.62059 14.25994 34830 ft 470 kts 118°
2026-05-06 08:42 48.59670 14.35191 34831 ft 470 kts 118°
2026-05-06 08:43 48.57279 14.44382 34808 ft 470 kts 118°
2026-05-06 08:43 48.54858 14.53565 34828 ft 471 kts 118°
2026-05-06 08:44 48.52432 14.62744 34832 ft 471 kts 118°
2026-05-06 08:44 48.49996 14.71910 34835 ft 471 kts 118°
2026-05-06 08:45 48.47559 14.81070 34832 ft 470 kts 118°
2026-05-06 08:45 48.45117 14.90218 34822 ft 470 kts 118°
2026-05-06 08:46 48.42681 14.99301 34827 ft 470 kts 118°
2026-05-06 08:46 48.40212 15.08418 34835 ft 470 kts 118°
2026-05-06 08:47 48.37763 15.17546 34842 ft 471 kts 118°
2026-05-06 08:47 48.35310 15.26661 34821 ft 470 kts 118°
2026-05-06 08:48 48.32840 15.35745 34837 ft 468 kts 118°
2026-05-06 08:48 48.30361 15.44805 34841 ft 469 kts 118°
2026-05-06 08:49 48.27889 15.53798 34839 ft 468 kts 118°
2026-05-06 08:49 48.25387 15.62848 34815 ft 468 kts 117°
2026-05-06 08:50 48.22885 15.71882 34834 ft 468 kts 118°
2026-05-06 08:50 48.20387 15.80915 34835 ft 472 kts 118°
2026-05-06 08:51 48.17869 15.89948 34843 ft 472 kts 118°
2026-05-06 08:51 48.15327 15.99007 34825 ft 472 kts 118°
2026-05-06 08:52 48.12770 16.08095 34847 ft 474 kts 117°
2026-05-06 08:52 48.10206 16.17198 34855 ft 474 kts 117°
2026-05-06 08:53 48.07635 16.26294 34855 ft 473 kts 117°
2026-05-06 08:53 48.05063 16.35366 34857 ft 474 kts 117°
2026-05-06 08:54 48.02488 16.44421 34845 ft 473 kts 117°
2026-05-06 08:54 47.99902 16.53465 34847 ft 473 kts 117°
2026-05-06 08:55 47.97297 16.62490 34848 ft 473 kts 117°
2026-05-06 08:55 47.94693 16.71518 34856 ft 473 kts 117°
2026-05-06 08:56 47.92103 16.80468 34863 ft 473 kts 117°
2026-05-06 08:56 47.89482 16.89491 34882 ft 473 kts 117°
2026-05-06 08:57 47.86862 16.98495 34883 ft 473 kts 117°
2026-05-06 08:57 47.84230 17.07479 34880 ft 473 kts 117°
2026-05-06 08:58 47.81337 17.16204 34881 ft 467 kts 122°
2026-05-06 08:58 47.78222 17.24693 34892 ft 467 kts 122°
2026-05-06 08:59 47.75121 17.33148 34887 ft 472 kts 122°
2026-05-06 08:59 47.71973 17.41711 34890 ft 472 kts 122°
2026-05-06 09:00 47.68817 17.50266 34881 ft 470 kts 122°
2026-05-06 09:00 47.65697 17.58677 34899 ft 464 kts 122°
2026-05-06 09:01 47.62578 17.67077 34908 ft 464 kts 122°
2026-05-06 09:01 47.59469 17.75411 34907 ft 464 kts 122°
2026-05-06 09:02 47.56335 17.83776 34884 ft 465 kts 122°
2026-05-06 09:02 47.53233 17.92074 34898 ft 458 kts 123°
2026-05-06 09:03 47.50123 18.00308 34903 ft 458 kts 123°
2026-05-06 09:03 47.47012 18.08555 34904 ft 459 kts 123°
2026-05-06 09:04 47.43902 18.16784 34903 ft 458 kts 123°
2026-05-06 09:04 47.40774 18.24987 34902 ft 462 kts 123°
2026-05-06 09:05 47.37622 18.33265 34911 ft 463 kts 123°
2026-05-06 09:05 47.34461 18.41530 34914 ft 462 kts 123°
2026-05-06 09:06 47.31299 18.49777 34915 ft 462 kts 123°
2026-05-06 09:06 47.28129 18.58042 34919 ft 465 kts 123°
2026-05-06 09:07 47.24937 18.66317 34920 ft 465 kts 123°
2026-05-06 09:07 47.21737 18.74593 34926 ft 465 kts 123°
2026-05-06 09:08 47.18552 18.82801 34930 ft 465 kts 123°
2026-05-06 09:08 47.15340 18.91050 34930 ft 465 kts 123°
2026-05-06 09:09 47.12118 18.99293 34937 ft 465 kts 122°
2026-05-06 09:09 47.08895 19.07527 34941 ft 465 kts 123°
2026-05-06 09:10 47.05667 19.15755 34943 ft 465 kts 123°
2026-05-06 09:10 47.02429 19.23967 34936 ft 465 kts 122°
2026-05-06 09:11 46.99203 19.32133 34941 ft 467 kts 122°
2026-05-06 09:11 46.95940 19.40358 34952 ft 467 kts 123°
2026-05-06 09:12 46.92718 19.48464 34949 ft 467 kts 123°
2026-05-06 09:12 46.89440 19.56687 34944 ft 467 kts 122°
2026-05-06 09:13 46.86158 19.64893 34953 ft 468 kts 122°
2026-05-06 09:13 46.82864 19.73097 34963 ft 468 kts 122°
2026-05-06 09:14 46.79568 19.81292 34961 ft 468 kts 123°
2026-05-06 09:14 46.76263 19.89472 34962 ft 468 kts 123°
2026-05-06 09:15 46.72949 19.97650 34963 ft 469 kts 122°
2026-05-06 09:15 46.69650 20.05782 34965 ft 469 kts 122°
2026-05-06 09:16 46.66323 20.13954 34965 ft 469 kts 123°
2026-05-06 09:16 46.62987 20.22127 34967 ft 469 kts 123°
2026-05-06 09:17 46.59648 20.30282 34963 ft 470 kts 123°
2026-05-06 09:17 46.56860 20.37069 34964 ft 470 kts 123°
2026-05-06 09:18 46.53503 20.45211 34968 ft 470 kts 123°
2026-05-06 09:18 46.50141 20.53350 34980 ft 470 kts 123°
2026-05-06 09:19 46.46766 20.61490 34979 ft 471 kts 123°
2026-05-06 09:19 46.43402 20.69587 34987 ft 471 kts 123°
2026-05-06 09:20 46.40007 20.77719 34985 ft 471 kts 123°
2026-05-06 09:20 46.36617 20.85838 34987 ft 471 kts 123°
2026-05-06 09:21 46.32988 20.93741 35001 ft 472 kts 127°
2026-05-06 09:21 46.29182 21.01482 35007 ft 472 kts 127°
2026-05-06 09:22 46.25405 21.09232 35017 ft 472 kts 127°
2026-05-06 09:22 46.21619 21.16994 35017 ft 472 kts 127°
2026-05-06 09:23 46.17823 21.24738 35021 ft 473 kts 127°
2026-05-06 09:23 46.14048 21.32436 35019 ft 473 kts 127°
2026-05-06 09:24 46.10300 21.40062 35023 ft 473 kts 127°
2026-05-06 09:24 46.06491 21.47785 35018 ft 473 kts 127°
2026-05-06 09:25 46.02667 21.55510 35010 ft 475 kts 126°
2026-05-06 09:25 45.98827 21.63253 35006 ft 475 kts 127°
2026-05-06 09:26 45.94984 21.70977 35013 ft 475 kts 127°
2026-05-06 09:26 45.91134 21.78693 35012 ft 475 kts 127°
2026-05-06 09:27 45.87277 21.86398 35009 ft 476 kts 126°
2026-05-06 09:27 45.83407 21.94130 35012 ft 477 kts 126°
2026-05-06 09:28 45.79530 22.01850 35012 ft 477 kts 126°
2026-05-06 09:28 45.75646 22.09554 35012 ft 477 kts 126°
2026-05-06 09:29 45.71781 22.17201 35016 ft 477 kts 126°
2026-05-06 09:29 45.67879 22.24895 35017 ft 477 kts 126°
2026-05-06 09:30 45.63972 22.32585 35016 ft 477 kts 126°
2026-05-06 09:30 45.60090 22.40206 35018 ft 478 kts 126°
2026-05-06 09:31 45.56170 22.47883 35022 ft 478 kts 126°
2026-05-06 09:31 45.52244 22.55547 35009 ft 480 kts 126°
2026-05-06 09:32 45.48291 22.63238 35024 ft 480 kts 126°
2026-05-06 09:32 45.44344 22.70901 35021 ft 481 kts 126°
2026-05-06 09:33 45.40378 22.78579 35023 ft 482 kts 126°
2026-05-06 09:33 45.36408 22.86242 35024 ft 480 kts 126°
2026-05-06 09:34 45.32438 22.93885 35026 ft 480 kts 126°
2026-05-06 09:34 45.28492 23.01463 35040 ft 479 kts 126°
2026-05-06 09:35 45.24534 23.09043 35029 ft 478 kts 126°
2026-05-06 09:35 45.20575 23.16605 35030 ft 478 kts 126°
2026-05-06 09:36 45.16599 23.24180 35025 ft 481 kts 126°
2026-05-06 09:36 45.12604 23.31768 35037 ft 481 kts 126°
2026-05-06 09:37 45.08605 23.39346 35030 ft 481 kts 126°
2026-05-06 09:37 45.04589 23.46912 35029 ft 481 kts 126°
2026-05-06 09:38 45.00581 23.54484 35030 ft 481 kts 126°
2026-05-06 09:38 44.96570 23.62029 35032 ft 479 kts 126°
2026-05-06 09:39 44.92558 23.69550 35023 ft 480 kts 126°
2026-05-06 09:39 44.88535 23.77073 35024 ft 480 kts 126°
2026-05-06 09:40 44.84535 23.84532 35025 ft 479 kts 126°
2026-05-06 09:40 44.78495 23.95761 35023 ft 480 kts 126°
2026-05-06 09:41 44.74455 24.03245 35026 ft 480 kts 126°
2026-05-06 09:41 44.70414 24.10717 35026 ft 480 kts 126°
2026-05-06 09:42 44.66369 24.18165 35032 ft 478 kts 126°
2026-05-06 09:42 44.62333 24.25582 35023 ft 478 kts 126°
2026-05-06 09:43 44.58291 24.32995 35026 ft 478 kts 126°
2026-05-06 09:43 44.54247 24.40392 35034 ft 478 kts 126°
2026-05-06 09:44 44.50197 24.47754 35027 ft 475 kts 128°
2026-05-06 09:44 44.46004 24.54865 35021 ft 477 kts 126°
2026-05-06 09:45 44.42083 24.62364 35032 ft 478 kts 125°
2026-05-06 09:45 44.38079 24.69780 35035 ft 477 kts 126°
2026-05-06 09:46 44.34029 24.77095 35027 ft 475 kts 126°
2026-05-06 09:46 44.29974 24.84384 35027 ft 475 kts 126°
2026-05-06 09:47 44.25917 24.91662 35025 ft 475 kts 126°
2026-05-06 09:47 44.21867 24.98932 35035 ft 472 kts 126°
2026-05-06 09:48 44.17839 25.06145 35027 ft 472 kts 126°
2026-05-06 09:48 44.13827 25.13299 35031 ft 472 kts 127°
2026-05-06 09:49 44.09691 25.20406 35013 ft 474 kts 127°
2026-05-06 09:49 44.05673 25.27659 35032 ft 471 kts 126°
2026-05-06 09:50 44.01663 25.34878 35025 ft 472 kts 126°
2026-05-06 09:50 43.97600 25.42060 35024 ft 472 kts 127°
2026-05-06 09:51 43.93534 25.49216 35037 ft 472 kts 127°
2026-05-06 09:51 43.89499 25.56303 35029 ft 471 kts 127°
2026-05-06 09:52 43.85405 25.63467 35025 ft 471 kts 127°
2026-05-06 09:52 43.81364 25.70527 35019 ft 471 kts 127°
2026-05-06 09:53 43.77294 25.77632 35033 ft 471 kts 127°
2026-05-06 09:53 43.73459 25.84949 35027 ft 469 kts 120°
2026-05-06 09:54 43.69983 25.92579 35023 ft 468 kts 120°
2026-05-06 09:54 43.66506 26.00194 35025 ft 469 kts 120°
2026-05-06 09:55 43.63019 26.07795 35024 ft 469 kts 120°
2026-05-06 09:55 43.59517 26.15395 35031 ft 469 kts 120°
2026-05-06 09:56 43.56018 26.22980 35033 ft 468 kts 120°
2026-05-06 09:56 43.52532 26.30504 35044 ft 469 kts 120°
2026-05-06 09:57 43.49010 26.38090 35037 ft 470 kts 121°
2026-05-06 09:57 43.45482 26.45663 35041 ft 470 kts 121°
2026-05-06 09:58 43.41948 26.53238 35048 ft 470 kts 121°
2026-05-06 09:58 43.38413 26.60802 35055 ft 469 kts 121°
2026-05-06 09:59 43.34877 26.68348 35055 ft 469 kts 121°
2026-05-06 09:59 43.31361 26.75843 35050 ft 471 kts 121°
2026-05-06 10:00 43.27800 26.83411 35058 ft 471 kts 121°
2026-05-06 10:00 43.24253 26.90927 35067 ft 469 kts 121°
2026-05-06 10:01 43.20697 26.98441 35068 ft 469 kts 121°
2026-05-06 10:01 43.17165 27.05877 35069 ft 469 kts 121°
2026-05-06 10:02 43.13605 27.13353 35083 ft 469 kts 121°
2026-05-06 10:02 43.10053 27.20796 35081 ft 466 kts 121°
2026-05-06 10:03 43.06500 27.28226 35077 ft 466 kts 121°
2026-05-06 10:03 43.02947 27.35632 35083 ft 466 kts 121°
2026-05-06 10:04 42.99981 27.41796 35101 ft 466 kts 122°
2026-05-06 10:04 42.95820 27.48628 35097 ft 469 kts 131°
2026-05-06 10:05 42.91402 27.55170 35097 ft 469 kts 131°
2026-05-06 10:05 42.86986 27.61735 35113 ft 469 kts 130°
2026-05-06 10:06 42.82570 27.68296 35114 ft 470 kts 131°
2026-05-06 10:06 42.78145 27.74856 35116 ft 469 kts 131°
2026-05-06 10:07 42.73742 27.81377 35118 ft 463 kts 131°
2026-05-06 10:07 42.69405 27.87777 35148 ft 468 kts 131°
2026-05-06 10:08 42.67205 27.91013 34953 ft 463 kts 131°
2026-05-06 10:08 42.65016 27.94232 34621 ft 465 kts 131°
2026-05-06 10:08 42.62816 27.97464 34371 ft 466 kts 131°
2026-05-06 10:08 42.60610 28.00705 34128 ft 467 kts 131°
2026-05-06 10:09 42.58402 28.03948 33845 ft 469 kts 131°
2026-05-06 10:09 42.56181 28.07204 33577 ft 470 kts 131°
2026-05-06 10:09 42.53955 28.10461 33324 ft 471 kts 131°
2026-05-06 10:09 42.51732 28.13707 33057 ft 468 kts 131°
2026-05-06 10:10 42.49518 28.16931 32792 ft 467 kts 131°
2026-05-06 10:10 42.47303 28.20154 32527 ft 467 kts 131°
2026-05-06 10:10 42.45088 28.23376 32265 ft 467 kts 131°
2026-05-06 10:10 42.42874 28.26594 32006 ft 468 kts 131°
2026-05-06 10:11 42.40660 28.29814 31754 ft 466 kts 131°
2026-05-06 10:11 42.38453 28.33020 31499 ft 464 kts 131°
2026-05-06 10:11 42.36261 28.36199 31035 ft 459 kts 132°
2026-05-06 10:11 42.34085 28.39351 30477 ft 457 kts 132°
2026-05-06 10:12 42.31919 28.42486 29862 ft 455 kts 132°
2026-05-06 10:12 42.29787 28.45570 29184 ft 453 kts 132°
2026-05-06 10:12 42.27640 28.48668 28546 ft 450 kts 132°
2026-05-06 10:12 42.25506 28.51743 27967 ft 446 kts 132°
2026-05-06 10:13 42.23395 28.54785 27394 ft 443 kts 131°
2026-05-06 10:13 42.21298 28.57805 26809 ft 440 kts 131°
2026-05-06 10:13 42.19211 28.60808 26217 ft 438 kts 131°
2026-05-06 10:13 42.17130 28.63800 25647 ft 435 kts 131°
2026-05-06 10:14 42.15069 28.66758 25101 ft 432 kts 131°
2026-05-06 10:14 42.13010 28.69712 24517 ft 431 kts 132°
2026-05-06 10:14 42.10958 28.72642 23940 ft 429 kts 133°
2026-05-06 10:14 42.08662 28.75181 23377 ft 426 kts 148°
2026-05-06 10:15 42.05963 28.76642 23155 ft 412 kts 167°
2026-05-06 10:15 42.03137 28.77013 23117 ft 408 kts 179°
2026-05-06 10:15 42.00296 28.77054 23108 ft 408 kts 180°
2026-05-06 10:15 41.97453 28.77093 23120 ft 408 kts 179°
2026-05-06 10:16 41.94609 28.77165 23130 ft 409 kts 179°
2026-05-06 10:16 41.91766 28.77260 22999 ft 408 kts 179°
2026-05-06 10:16 41.88969 28.77364 22767 ft 407 kts 179°
2026-05-06 10:16 41.86145 28.77474 22516 ft 405 kts 179°
2026-05-06 10:17 41.83327 28.77581 22245 ft 404 kts 179°
2026-05-06 10:17 41.80520 28.77689 21974 ft 403 kts 179°
2026-05-06 10:17 41.77718 28.77494 21702 ft 401 kts 192°
2026-05-06 10:17 41.75153 28.76265 21436 ft 386 kts 211°
2026-05-06 10:18 41.73107 28.74088 21225 ft 367 kts 231°
2026-05-06 10:18 41.71743 28.71307 21029 ft 351 kts 245°
2026-05-06 10:18 41.70594 28.68452 20572 ft 348 kts 244°
2026-05-06 10:18 41.69349 28.65669 20077 ft 348 kts 240°
2026-05-06 10:19 41.68013 28.62963 19617 ft 347 kts 239°
2026-05-06 10:19 41.66634 28.60312 19180 ft 346 kts 238°
2026-05-06 10:19 41.65241 28.57710 18764 ft 343 kts 238°
2026-05-06 10:19 41.63850 28.55142 18380 ft 339 kts 237°
2026-05-06 10:20 41.62462 28.52602 17968 ft 339 kts 237°
2026-05-06 10:20 41.61084 28.50091 17578 ft 339 kts 237°
2026-05-06 10:20 41.59674 28.47525 17186 ft 337 kts 237°
2026-05-06 10:20 41.58310 28.45046 16824 ft 332 kts 237°
2026-05-06 10:21 41.56947 28.42571 16493 ft 330 kts 237°
2026-05-06 10:21 41.55589 28.40106 16156 ft 329 kts 237°
2026-05-06 10:21 41.54235 28.37644 15822 ft 328 kts 237°
2026-05-06 10:21 41.52879 28.35194 15483 ft 326 kts 236°
2026-05-06 10:22 41.51524 28.32801 15155 ft 321 kts 236°
2026-05-06 10:22 41.50178 28.30429 14814 ft 321 kts 236°
2026-05-06 10:22 41.48830 28.28057 14488 ft 321 kts 236°
2026-05-06 10:22 41.47482 28.25684 14165 ft 319 kts 236°
2026-05-06 10:23 41.46152 28.23336 13830 ft 315 kts 236°
2026-05-06 10:23 41.44785 28.20917 13786 ft 342 kts 236°
2026-05-06 10:23 41.43299 28.18302 14016 ft 365 kts 236°
2026-05-06 10:23 41.41737 28.15565 14148 ft 373 kts 235°
2026-05-06 10:24 41.40158 28.12819 14147 ft 375 kts 234°
2026-05-06 10:24 41.38272 28.10416 14120 ft 379 kts 217°
2026-05-06 10:24 41.35885 28.08906 14112 ft 383 kts 197°
2026-05-06 10:24 41.33242 28.08474 14109 ft 385 kts 178°
2026-05-06 10:25 41.30595 28.09016 14118 ft 385 kts 168°
2026-05-06 10:25 41.28020 28.09627 14112 ft 366 kts 172°
2026-05-06 10:25 41.25539 28.09804 14026 ft 350 kts 187°
2026-05-06 10:25 41.23307 28.08937 13885 ft 332 kts 211°
2026-05-06 10:26 41.21588 28.07053 13725 ft 313 kts 234°
2026-05-06 10:26 41.20284 28.04815 13572 ft 301 kts 236°
2026-05-06 10:26 41.18975 28.02695 13388 ft 293 kts 231°
2026-05-06 10:26 41.17441 28.00925 13028 ft 294 kts 217°
2026-05-06 10:27 41.15697 27.99505 12649 ft 293 kts 213°
2026-05-06 10:27 41.13928 27.98171 12264 ft 293 kts 212°
2026-05-06 10:27 41.12150 27.96846 11867 ft 292 kts 212°
2026-05-06 10:27 41.10347 27.95615 11487 ft 293 kts 205°
2026-05-06 10:28 41.08395 27.94828 11105 ft 293 kts 195°
2026-05-06 10:28 41.06408 27.94203 10738 ft 292 kts 194°
2026-05-06 10:28 41.04441 27.93582 10386 ft 290 kts 194°
2026-05-06 10:28 41.02479 27.92956 10067 ft 289 kts 192°
2026-05-06 10:29 41.00482 27.92711 9962 ft 289 kts 180°
2026-05-06 10:29 40.98466 27.92747 9962 ft 289 kts 178°
2026-05-06 10:29 40.96459 27.92957 9967 ft 289 kts 165°
2026-05-06 10:29 40.94671 27.94071 9973 ft 283 kts 136°
2026-05-06 10:30 40.93516 27.96032 9952 ft 265 kts 109°
2026-05-06 10:30 40.93133 27.98307 9697 ft 248 kts 84°
2026-05-06 10:30 40.93330 28.00532 9321 ft 242 kts 75°
2026-05-06 10:30 40.93628 28.02725 8969 ft 243 kts 75°
2026-05-06 10:31 40.93911 28.04933 8618 ft 243 kts 76°
2026-05-06 10:31 40.94177 28.07138 8305 ft 243 kts 76°
2026-05-06 10:31 40.94430 28.09345 7979 ft 241 kts 77°
2026-05-06 10:31 40.94677 28.11535 7659 ft 240 kts 77°
2026-05-06 10:32 40.94920 28.13715 7343 ft 239 kts 77°
2026-05-06 10:32 40.95157 28.15885 7033 ft 237 kts 77°
2026-05-06 10:32 40.95386 28.18043 6734 ft 236 kts 77°
2026-05-06 10:32 40.95612 28.20191 6422 ft 235 kts 78°
2026-05-06 10:33 40.95831 28.22305 6104 ft 235 kts 78°
2026-05-06 10:33 40.96054 28.24446 5790 ft 235 kts 78°
2026-05-06 10:33 40.96278 28.26589 5463 ft 235 kts 78°
2026-05-06 10:33 40.96505 28.28736 5170 ft 235 kts 79°
2026-05-06 10:34 40.96736 28.30948 4988 ft 247 kts 79°
2026-05-06 10:34 40.96972 28.33197 4966 ft 243 kts 79°
2026-05-06 10:34 40.97198 28.35359 4964 ft 234 kts 79°
2026-05-06 10:34 40.97423 28.37484 4973 ft 234 kts 78°
2026-05-06 10:35 40.97554 28.39643 4982 ft 236 kts 86°
2026-05-06 10:35 40.97556 28.41815 4985 ft 237 kts 87°
2026-05-06 10:35 40.97547 28.44002 4990 ft 237 kts 87°
2026-05-06 10:35 40.97537 28.46177 4986 ft 237 kts 87°
2026-05-06 10:36 40.97529 28.48322 4984 ft 237 kts 87°
2026-05-06 10:36 40.97357 28.50499 4991 ft 239 kts 98°
2026-05-06 10:36 40.97010 28.52659 4993 ft 239 kts 99°
2026-05-06 10:36 40.96654 28.54816 4991 ft 240 kts 99°
2026-05-06 10:37 40.96300 28.56972 4994 ft 239 kts 99°
2026-05-06 10:37 40.95967 28.59125 4993 ft 238 kts 95°
2026-05-06 10:37 40.95895 28.61302 4991 ft 236 kts 85°
2026-05-06 10:37 40.95935 28.63475 4992 ft 236 kts 85°
2026-05-06 10:38 40.95976 28.65647 4993 ft 236 kts 84°
2026-05-06 10:38 40.96304 28.67738 4991 ft 231 kts 60°
2026-05-06 10:38 40.97323 28.69297 4997 ft 224 kts 31°
2026-05-06 10:38 40.98683 28.70271 5001 ft 221 kts 19°
2026-05-06 10:39 41.00151 28.70876 5002 ft 220 kts 10°
2026-05-06 10:39 41.01659 28.71181 4982 ft 219 kts
2026-05-06 10:39 41.03176 28.71289 4828 ft 216 kts 358°
2026-05-06 10:39 41.04658 28.71247 4582 ft 211 kts 358°
2026-05-06 10:40 41.06086 28.71216 4368 ft 199 kts 358°
2026-05-06 10:40 41.07423 28.71186 4107 ft 186 kts 358°
2026-05-06 10:40 41.08685 28.71157 3850 ft 176 kts 358°
2026-05-06 10:40 41.09875 28.71129 3617 ft 166 kts 358°
2026-05-06 10:41 41.10992 28.71104 3406 ft 155 kts 358°
2026-05-06 10:41 41.12070 28.71079 3179 ft 154 kts 358°
2026-05-06 10:41 41.13148 28.71053 2969 ft 156 kts 358°
2026-05-06 10:41 41.14226 28.71028 2765 ft 155 kts 358°
2026-05-06 10:42 41.15303 28.71003 2545 ft 155 kts 358°
2026-05-06 10:42 41.16386 28.70978 2340 ft 156 kts 358°
2026-05-06 10:42 41.17413 28.70954 2143 ft 143 kts 359°
2026-05-06 10:42 41.18410 28.70931 1956 ft 146 kts 359°
2026-05-06 10:43 41.19424 28.70908 1749 ft 146 kts 359°
2026-05-06 10:43 41.20440 28.70884 1556 ft 146 kts 359°
2026-05-06 10:43 41.21458 28.70861 1357 ft 146 kts 359°
2026-05-06 10:44 41.23462 28.70807 933 ft 142 kts
2026-05-06 10:44 41.24441 28.70785 790 ft 140 kts
2026-05-06 10:44 41.25404 28.70776 640 ft 137 kts
2026-05-06 10:44 41.26354 28.70733 463 ft 136 kts
2026-05-06 10:45 41.27299 28.70716 373 ft 133 kts
2026-05-06 10:45 41.28129 28.70694 335 ft 103 kts
2026-05-06 10:45 41.28665 28.70686 335 ft 61 kts
2026-05-06 10:45 41.28961 28.70733 339 ft 30 kts 26°
2026-05-06 10:46 41.29040 28.70786 339 ft 0 kts 27°
2026-05-06 10:46 41.29043 28.70788 339 ft 2 kts 27°
2026-05-06 10:46 41.29069 28.70806 337 ft 8 kts 28°
2026-05-06 10:47 41.29131 28.70851 339 ft 13 kts 29°
2026-05-06 10:47 41.29219 28.70930 338 ft 17 kts 52°
2026-05-06 10:47 41.29240 28.71090 339 ft 19 kts 94°
2026-05-06 10:47 41.29136 28.71160 339 ft 21 kts 188°
2026-05-06 10:48 41.28986 28.71153 339 ft 22 kts 176°
2026-05-06 10:48 41.28824 28.71163 337 ft 24 kts 178°
2026-05-06 10:48 41.28650 28.71171 338 ft 26 kts 179°
2026-05-06 10:48 41.28465 28.71176 335 ft 27 kts 179°
2026-05-06 10:49 41.28336 28.71180 336 ft 28 kts 178°
2026-05-06 10:49 41.28133 28.71186 336 ft 30 kts 179°
2026-05-06 10:49 41.27918 28.71192 338 ft 32 kts 179°
2026-05-06 10:49 41.27693 28.71192 338 ft 33 kts 180°
2026-05-06 10:50 41.27457 28.71195 336 ft 35 kts 179°
2026-05-06 10:50 41.27211 28.71196 335 ft 36 kts 180°
2026-05-06 10:50 41.26895 28.71206 338 ft 27 kts 179°
2026-05-06 10:50 41.26782 28.71261 338 ft 28 kts 103°
2026-05-06 10:51 41.26786 28.71522 338 ft 29 kts 90°
2026-05-06 10:51 41.26728 28.71743 338 ft 27 kts 143°
2026-05-06 10:51 41.26704 28.71974 339 ft 25 kts 95°
2026-05-06 10:51 41.26651 28.72172 338 ft 27 kts 177°
2026-05-06 10:52 41.26461 28.72178 338 ft 28 kts 179°
2026-05-06 10:52 41.26259 28.72183 335 ft 30 kts 180°
2026-05-06 10:52 41.26049 28.72151 339 ft 31 kts 189°
2026-05-06 10:52 41.25845 28.72108 335 ft 24 kts 187°
2026-05-06 10:53 41.25785 28.72099 335 ft 0 kts 186°
2026-05-06 10:53 41.25784 28.72099 335 ft 1 kts 186°
2026-05-06 10:54 41.25726 28.72094 336 ft 13 kts 181°
2026-05-06 10:54 41.25623 28.72092 335 ft 17 kts 179°
2026-05-06 10:54 41.25498 28.72094 338 ft 19 kts 179°
2026-05-06 10:54 41.25358 28.72120 339 ft 22 kts 153°
2026-05-06 10:55 41.25257 28.72281 336 ft 25 kts 106°
2026-05-06 10:55 41.25248 28.72523 339 ft 28 kts 88°
2026-05-06 10:55 41.25252 28.72796 339 ft 31 kts 89°
2026-05-06 10:55 41.25253 28.73077 338 ft 28 kts 89°
2026-05-06 10:56 41.25265 28.73235 338 ft 15 kts 50°
2026-05-06 10:56 41.25369 28.73256 339 ft 17 kts 359°
2026-05-06 10:56 41.25504 28.73255 335 ft 21 kts 359°
2026-05-06 10:56 41.25666 28.73251 339 ft 25 kts 359°
2026-05-06 10:57 41.25851 28.73246 335 ft 28 kts 359°
2026-05-06 10:57 41.26060 28.73243 337 ft 32 kts 358°
2026-05-06 10:57 41.26290 28.73237 335 ft 35 kts
2026-05-06 10:57 41.26455 28.73235 339 ft 19 kts 360°
2026-05-06 10:58 41.26587 28.73257 337 ft 11 kts 60°
2026-05-06 10:58 41.26605 28.73367 339 ft 14 kts 92°
2026-05-06 10:58 41.26623 28.73452 337 ft 1 kts 69°
2026-05-06 10:58 41.26629 28.73474 335 ft 0 kts 70°
2026-05-06 10:59 41.26628 28.73474 335 ft 0 kts 70°